Regional Weather Roundup
Issued by NWS

Home | Current Version | Previous Version | Text Only | Print | Product List | Glossary Off
Versions: 1 2 3 4 5 6 7 8 9 10 11 12 13 14 15 16 17 18 19 20 21 22 23 24 25 26 27 28 29 30 31 32 33 34 35 36 37 38 39 40 41 42 43 44 45 46 47 48 49 50

000
ASUS43 KIND 220759
RWRIN

WEATHER ROUNDUP FOR INDIANA
NATIONAL WEATHER SERVICE INDIANAPOLIS IN
400 AM EDT SUN APR 22 2018

NOTE: "FAIR" INDICATES FEW OR NO CLOUDS BELOW 12,000 FEET WITH NO
SIGNIFICANT WEATHER AND/OR OBSTRUCTIONS TO VISIBILITY.

* - STATION DOES NOT REPORT WEATHER SUCH AS PRECIPITATION OR FOG.

+ - STATION NOT QUALITY CONTROLLED BY THE NATIONAL WEATHER SERVICE.
    USE DATA WITH CAUTION...ESPECIALLY DEWPOINT AND RELATIVE
    HUMIDITY OBSERVATIONS.

INZ001>003-010>013-019-020-220900-
NORTHWEST INDIANA

CITY           SKY/WX    TMP DP  RH WIND       PRES   REMARKS
KNOX *+        FAIR      43  32  65 E5        30.33S
MONTICELLO +   FAIR      46  27  48 NE10      30.30F

$$

LMZ046-743>745-220900-
SOUTHERN LAKE MICHIGAN

STATION/POSITION TIME  TEMP    WIND        PRES    WAVE
                       AIR SEA DIR/SP/G            HT
                 (UTC) (F)     (DEG/KT/KT) (MB)    (FT)
BURNS HARBOR     0716   42      80/  7/  9 1027.8F
MICHIGAN CITY    0730   43      40/  8/  9   N/A

$$

INZ004-005-014>016-021>024-220900-
NORTH CENTRAL INDIANA

CITY           SKY/WX    TMP DP  RH WIND       PRES   REMARKS
GOSHEN         FAIR      41  26  55 E5        30.35F
PERU/GRISSOM   FAIR     N/A N/A N/A NE9         N/A
ROCHESTER +    FAIR      46  30  53 E8        30.33F
SOUTH BEND     CLOUDY    41  29  62 NE5       30.35F
WARSAW +       FAIR      41  25  52 E3        30.34F

$$

INZ006>009-017-018-025>027-220900-
NORTHEAST INDIANA

CITY           SKY/WX    TMP DP  RH WIND       PRES   REMARKS
FORT WAYNE     MOCLDY    42  26  53 E7        30.35S

$$

INZ028-029-035-036-043>045-051>053-220900-
WEST CENTRAL INDIANA

CITY           SKY/WX    TMP DP  RH WIND       PRES   REMARKS
GREENCASTLE +  FAIR      45  28  53 E6        30.27R
LAFAYETTE      FAIR      47  29  49 NE10      30.29S
TERRE HAUTE    FAIR      49  28  44 E7        30.25S

$$

INZ030>032-037>040-046>048-054>057-064-065-220900-
CENTRAL INDIANA

CITY           SKY/WX    TMP DP  RH WIND       PRES   REMARKS
GREENWOOD *+   MOCLDY    47  26  45 E9        30.26F
INDIANAPOLIS   CLOUDY    49  25  39 E12       30.26F
-EAGLE CREEK   FAIR      49  25  39 E7        30.26F
KOKOMO +       FAIR      42  31  64 E7        30.31F
MT COMFORT *+  FAIR      43  34  70 NE9       30.27F
SHELBYVILLE    FAIR      49  26  41 E13       30.25F
ZIONSVILLE +   MOCLDY    45  27  49 E7        30.28S

$$

INZ033-034-041-042-049-050-058-059-220900-
EAST CENTRAL INDIANA

CITY           SKY/WX    TMP DP  RH WIND       PRES   REMARKS
MUNCIE         FAIR      45  25  45 E7        30.30F
RICHMOND +     FAIR      41  28  60 E9        30.30F

$$

INZ060-061-067>069-081>083-085>088-220900-
SOUTHWEST INDIANA

CITY           SKY/WX    TMP DP  RH WIND       PRES   REMARKS
EVANSVILLE     MOCLDY    55  32  41 E8        30.20F
HUNTINGBURG +  FAIR      54  30  40 E7        30.22F

$$

INZ062-063-066-070>080-084-089>092-220900-
SOUTH CENTRAL AND SOUTHEAST INDIANA

CITY           SKY/WX    TMP DP  RH WIND       PRES   REMARKS
BLOOMINGTON    FAIR      51  26  37 E6        30.24F
SEYMOUR +      FAIR      50  32  50 NE6       30.26S

$$





USA.gov is the U.S. government's official web portal to all federal, state and local government web resources and services.